Location: Grand Mesa Observatory
(38.9638°N, 108.2379°W)
Time: 18:35:10
(UTC-06:00)

OTV 5 (USA 277) - Visible Passes

Search period start: 23 March 2019 00:00
Search period end: 02 April 2019 00:00
Orbit: 315 x 320 km, 54.5° (Epoch: 14 March)

Date Brightness Start Highest point End Pass type
(mag) Time Alt. Az. Time Alt. Az. Time Alt. Az.
29 Mar ? 06:15:09 10° SSE 06:16:45 15° SE 06:18:22 10° E visible
30 Mar ? 06:28:41 10° SSW 06:31:16 44° SE 06:33:53 10° ENE visible
01 Apr ? 05:25:51 22° SSE 05:26:27 25° SE 05:28:45 10° ENE visible
